Milwaukee, WI

6:07 PM CST on December 14, 2019 (GMT -0600)
Gen Mitchell International

Weather History for KMKE - September, 2019

Change the Weather History Date:

Wednesday, September 25, 2019

  Actual Average Record
Temperature  
Mean Temperature 72 °F 59 °F  
Max Temperature 79 °F 68 °F 89 °F (1933)
Min Temperature 64 °F 51 °F 29 °F (1942)
Degree Days  
Heating Degree Days 0 7  
Month to date heating degree days 8 86  
Since 1 July heating degree days 10 112  
Cooling Degree Days 6 1  
Month to date cooling degree days 109 65  
Year to date cooling degree days 715 630  
Growing Degree Days 22 (Base 50)    
Moisture  
Dew Point 53 °F    
Average Humidity 55    
Maximum Humidity 78    
Minimum Humidity 31    
Precipitation  
Precipitation T in 0.11 in 2.31 in (2005)
Month to date precipitation 5.60 2.68  
Year to date precipitation 34.01 26.86  
Snow  
Snow 0.00 in 0.00 in T in (1942)
Month to date snowfall 0.0 0.0  
Since 1 July snowfall 0.0 0.0  
Since 1 September snowfall 0.0 0.0  
Snow Depth 0.00 in    
Sea Level Pressure  
Sea Level Pressure 29.70 in    
Wind  
Wind Speed 14 mph ()    
Max Wind Speed 24 mph    
Max Gust Speed 33 mph    
Visibility 10.0 miles    
Events      
T = Trace of Precipitation, MM = Missing Value Source: Averaged Metar Reports

Daily Weather History Graph

Daily Weather History Graph

Search for Another Location

Airport or City:

Astronomy

Sep. 25, 2019 Rise Set
Actual Time 6:41 AM CDT 6:43 PM CDT
Civil Twilight 6:13 AM CDT 7:12 PM CDT
Nautical Twilight 5:40 AM CDT 7:45 PM CDT
Astronomical Twilight 5:06 AM CDT 8:18 PM CDT
Moon 2:27 AM CDT (9/25) 5:22 PM CDT (9/25)
Length of Visible Light 12h 58m
Length of Day
12h 01m
Waning Crescent, 14% of the Moon is Illuminated
Sep 25
Waning Crescent
Sep 28
New
Oct 5
First Quarter
Oct 13
Full
Oct 21
Last Quarter

Hourly Weather History & Observations

Time (CDT) Temp. Dew Point Humidity Pressure Visibility Wind Dir Wind Speed Gust Speed Precip Events Conditions
12:52 AM 69.1 °F 55.9 °F 63% 29.70 in 10.0 mi SW 23.0 mph 33.4 mph N/A   Mostly Cloudy
1:52 AM 68.0 °F 55.9 °F 65% 29.68 in 10.0 mi SW 19.6 mph 31.1 mph N/A   Overcast
2:52 AM 68.0 °F 55.9 °F 65% 29.67 in 10.0 mi SW 21.9 mph 28.8 mph N/A   Overcast
3:52 AM 68.0 °F 55.9 °F 65% 29.64 in 10.0 mi SW 18.4 mph 29.9 mph N/A   Overcast
4:52 AM 68.0 °F 57.0 °F 68% 29.64 in 10.0 mi SW 19.6 mph 27.6 mph N/A   Overcast
5:52 AM 66.9 °F 57.0 °F 70% 29.63 in 10.0 mi SW 18.4 mph 28.8 mph N/A   Mostly Cloudy
6:52 AM 66.9 °F 59.0 °F 76% 29.65 in 10.0 mi SW 15.0 mph 23.0 mph 0.00 in   Mostly Cloudy
7:18 AM 66.9 °F 59.0 °F 76% 29.66 in 10.0 mi SW 16.1 mph 24.2 mph N/A   Mostly Cloudy
7:52 AM 66.9 °F 59.0 °F 76% 29.66 in 10.0 mi SW 11.5 mph - N/A   Mostly Cloudy
8:52 AM 69.1 °F 60.1 °F 73% 29.66 in 10.0 mi WSW 11.5 mph 25.3 mph N/A   Mostly Cloudy
9:52 AM 72.0 °F 60.1 °F 66% 29.67 in 10.0 mi West 15.0 mph 24.2 mph N/A   Scattered Clouds
10:52 AM 73.9 °F 60.1 °F 62% 29.68 in 10.0 mi WSW 16.1 mph 23.0 mph N/A   Mostly Cloudy
11:52 AM 75.0 °F 57.9 °F 55% 29.69 in 10.0 mi WSW 12.7 mph - N/A   Mostly Cloudy
12:52 PM 77.0 °F 55.9 °F 48% 29.68 in 10.0 mi West 16.1 mph 31.1 mph N/A   Mostly Cloudy
1:52 PM 78.1 °F 51.1 °F 39% 29.68 in 10.0 mi West 16.1 mph 25.3 mph N/A   Scattered Clouds
2:52 PM 79.0 °F 46.0 °F 31% 29.67 in 10.0 mi West 16.1 mph 29.9 mph N/A   Partly Cloudy
3:52 PM 77.0 °F 46.0 °F 33% 29.69 in 10.0 mi West 13.8 mph 25.3 mph N/A   Scattered Clouds
4:52 PM 75.0 °F 48.9 °F 40% 29.71 in 10.0 mi West 12.7 mph - N/A   Mostly Cloudy
5:52 PM 73.9 °F 50.0 °F 43% 29.73 in 10.0 mi West 8.1 mph - N/A   Mostly Cloudy
6:52 PM 72.0 °F 45.0 °F 38% 29.75 in 10.0 mi West 9.2 mph - N/A   Mostly Cloudy
7:52 PM 70.0 °F 46.0 °F 42% 29.76 in 10.0 mi West 9.2 mph - N/A   Overcast
8:52 PM 69.1 °F 45.0 °F 42% 29.79 in 10.0 mi West 9.2 mph - N/A   Overcast
9:52 PM 68.0 °F 46.0 °F 45% 29.81 in 10.0 mi West 8.1 mph - N/A   Overcast
10:52 PM 66.9 °F 46.9 °F 49% 29.81 in 10.0 mi West 10.4 mph - N/A   Overcast
11:52 PM 66.0 °F 46.0 °F 48% 29.80 in 10.0 mi West 9.2 mph - N/A   Overcast